Погода в Осиповичах

Беларусь     53°18′31″N   28°38′17″E
темп.,
°C
ветер,
м/с
пор.,
м/с
влажн.,
%
обл.,
%
осадки,
мм/ч
давл.,
гПа
погр.,
м
6 мая, чт
чт600:00+11ю41372100 0.0 1001366
03:00+10ю4128377 0.0 999427
06:00+9з5993100 0.6 999752
09:00+6з5991100 3.8 10031065
12:00+9зюз7117775 0.6 10041298
15:00+11зюз7115790 1.2 10061915
18:00+11зюз6125136 0.6 10072078
21:00+6зюз310640 0.8 1009317
7 мая, пт
пт700:00+4ююз377681 0.0 1010120
03:00+4ююз41280100 0.0 1010301
06:00+5ююз3119198 0.3 1009387
09:00+9юз4871100 0.3 1009596
12:00+13ююз6958100 0.1 10081576
15:00+12ююв4963100 0.5 10061638
18:00+9ююв3897100 6.2 1003691
21:00+8ююз2798100 6.3 1004247
8 мая, сб
сб800:00+7ююз2798100 0.0 1003187
03:00+7юз3898100 0.4 1003343
06:00+6зюз4996100 0.0 1003688
09:00+3зсз71397100 0.8 1005763
12:00+5зсз61189100 2.5 10091088
15:00+8зсз7126296 2.9 10111958
18:00+9з711635 0.3 10121549
21:00+6з512815 0.3 1015749
9 мая, вс
вс900:00+4з412935 0.0 1016496
03:00+2з311953 0.0 1018320
06:00+1зсз27940 0.0 1021177
09:00+7сз24535 0.0 1023554
12:00+12з24375 0.0 10241679
15:00+14зюз343981 0.0 10232281
18:00+13зюз34437 0.0 10241945
21:00+8ю22665 0.0 102510
10 мая, пн
пн1000:00+6ююв34715 0.0 102666
03:00+5ююв26805 0.0 102795
06:00+4ююв258260 0.0 1028102
09:00+12ю365797 0.0 1028425
12:00+16ююв4642100 0.0 10281351
15:00+18ююв56414 0.0 10271582
18:00+17ююв46510 0.0 10261363
21:00+10юв39785 0.0 1027161